Wind_Speed
8 7 8 10 6 6 3 4 5 4 3 7 9 9 8 9 10 10 7 8 5 6 9 9 7 7 7 7 8 6 4 3 2 4 8 9 13 14 17 15 17 18 19
6 6 4 2 4 4 4 3 4 3 3 6 8 11 7 7 12 11 9 7 8 6 9 9 7 8 10 11 10 9 7 8 7 6 6 9 10 10 13 17 19 20 17
6 5 6 4 5 5 7 5 3 5 4 4 2 1 3 6 9 4 10 10 9 10 13 7 8 8 9 11 12 11 11 12 11 10 10 10 10 10 11 12 14 23 22
5 4 3 3 2 2 4 4 4 3 2 3 4 4 7 4 7 5 5 8 8 6 10 13 11 11 10 11 13 13 13 13 15 15 15 15 14 13 12 13 15 19 23
4 5 3 2 1 2 3 4 3 3 4 4 4 5 4 5 9 10 7 3 7 7 8 11 15 13 14 13 13 14 14 15 15 18 19 19 19 17 17 16 15 16 18
5 2 3 4 2 3 4 5 6 7 7 6 7 6 6 9 8 7 9 10 8 10 10 13 21 14 20 22 18 14 16 17 19 19 20 21 20 20 21 21 20 20 19
4 3 3 5 5 5 5 6 8 8 8 6 8 7 5 6 6 8 7 9 15 11 11 17 18 30 26 25 24 14 22 17 19 17 19 22 21 22 22 23 22 23 23
2 2 5 5 4 5 7 7 8 8 8 7 7 8 8 8 6 7 8 10 6 5 5 11 18 14 23 26 25 21 15 19 19 17 16 19 20 20 20 19 20 22 23
1 0 3 5 5 7 7 9 12 11 9 9 10 10 8 7 6 6 7 6 3 8 7 9 11 13 7 14 18 18 9 12 16 17 10 16 17 21 22 24 21 23 23
3 5 7 8 8 9 9 9 10 10 10 8 7 8 8 7 7 6 9 11 8 9 9 9 9 6 2 6 16 12 10 11 10 16 12 15 17 17 17 16 12 18 28
9 10 11 12 12 13 12 10 10 10 10 8 9 8 10 11 16 17 10 12 12 12 10 7 6 4 8 5 3 7 8 5 8 11 15 15 17 17 16 15 13 14 18
10 11 12 11 10 10 11 12 12 10 11 9 10 11 10 13 15 13 13 14 13 10 14 14 9 5 5 7 2 5 8 13 9 12 15 15 16 18 17 15 13 12 13
11 12 10 8 7 7 8 10 10 9 11 10 10 10 15 18 17 14 14 14 11 9 14 17 14 1 2 6 7 4 3 14 13 14 16 17 17 18 19 17 15 15 14
6 5 6 4 4 4 2 5 8 9 9 12 13 14 16 20 18 14 13 13 9 10 11 14 13 8 7 9 7 9 9 10 15 15 16 17 20 20 21 20 18 18 18
6 6 6 4 4 4 3 4 5 7 9 11 12 14 15 15 16 17 16 12 9 8 11 14 15 14 15 14 11 11 13 13 15 16 18 20 20 22 22 21 22 21 20
11 12 12 11 9 6 4 4 5 7 8 9 10 10 11 14 15 16 18 18 15 10 12 15 19 19 18 16 15 14 13 14 14 15 19 21 21 21 22 24 24 23 22
7 8 9 9 9 8 9 7 6 7 8 9 10 12 13 14 16 17 16 16 16 14 12 13 20 23 24 23 22 19 18 16 16 15 17 22 25 24 25 27 27 27 27
3 5 6 7 8 8 7 8 8 9 10 11 11 13 15 15 17 17 17 16 15 15 14 14 15 18 19 21 21 21 20 19 18 17 18 19 20 22 24 22 23 24 26
3 3 6 8 8 9 9 9 10 12 12 12 12 13 15 16 17 17 16 16 15 16 15 14 15 15 16 17 17 18 14 16 15 16 16 18 21 21 20 15 17 20 20
7 7 8 11 12 11 10 11 12 14 15 14 14 14 15 16 16 17 17 17 17 17 17 16 15 15 15 15 15 14 14 14 14 18 17 16 19 15 15 10 12 12 17
11 11 10 12 13 12 12 15 16 16 15 15 16 17 16 15 15 16 17 17 17 17 18 18 18 17 15 14 16 17 16 15 16 15 16 14 19 18 15 9 11 12 9
15 14 14 15 15 13 15 17 18 18 18 17 16 18 19 17 16 16 17 17 17 17 16 17 17 17 16 15 17 17 18 19 20 18 17 18 16 16 14 15 15 13 13
19 18 17 17 17 16 20 20 19 19 20 20 19 17 19 18 16 16 17 18 17 17 17 17 17 16 16 16 16 17 17 17 18 18 17 19 17 15 18 17 16 17 16
20 18 18 19 17 18 18 19 20 20 19 19 18 16 18 18 18 17 17 17 17 17 16 16 16 17 16 18 18 19 19 18 17 17 17 19 21 19 20 21 20 18 19
18 16 16 16 18 19 20 19 19 19 18 18 17 17 16 16 17 16 17 18 17 17 17 17 17 18 18 18 18 19 19 19 19 18 18 18 20 19 18 18 20 19 19
15 14 14 17 19 20 22 21 18 17 16 16 16 15 14 14 16 17 16 16 17 17 17 18 18 18 18 18 19 19 19 18 19 19 19 19 18 19 18 20 20 20 20
Wind_Direction
156 152 162 165 157 161 248 227 234 224 219 206 238 226 228 242 252 255 259 283 281 288 298 299 285 271 257 265 263 237 223 227 200 143 126 122 133 162 173 170 167 173 171
149 144 175 202 161 185 185 187 190 216 231 264 229 226 223 253 280 273 265 286 306 314 292 285 278 269 265 255 259 259 268 221 218 207 185 161 156 152 165 181 182 179 181
150 175 194 197 180 177 185 193 192 196 187 217 225 219 233 244 243 255 261 270 264 286 279 260 254 259 268 265 253 243 242 243 212 213 210 200 186 177 172 171 181 188 193
177 187 151 172 148 142 165 160 199 185 248 255 246 229 207 193 243 257 268 281 275 285 264 244 245 225 237 260 261 246 236 233 232 214 211 208 203 198 194 186 182 192 194
125 117 124 121 120 163 205 189 210 236 242 247 267 279 291 301 256 273 291 263 341 318 285 266 235 227 227 234 255 248 235 228 224 220 215 213 207 205 204 206 203 199 199
130 135 171 156 190 246 228 220 218 224 240 256 272 299 287 275 271 282 298 290 288 280 299 288 281 283 260 252 221 221 238 231 216 215 216 216 214 210 208 210 210 211 211
164 195 217 195 181 211 232 233 240 234 249 257 265 256 276 304 292 314 312 274 265 278 289 320 293 287 253 257 268 239 220 230 223 217 209 216 217 215 212 212 214 216 217
168 285 258 265 243 243 256 255 256 258 273 271 266 261 281 300 310 297 323 333 277 267 319 308 332 313 269 240 257 221 217 224 227 232 201 212 219 214 217 217 218 221 222
322 41 273 269 275 272 272 272 261 257 264 267 265 267 275 280 284 269 285 327 327 252 309 293 330 314 335 234 243 221 217 215 217 228 219 212 227 218 224 214 222 224 224
255 268 273 274 265 266 265 271 266 257 249 264 255 254 264 272 287 280 264 276 278 267 274 324 346 346 45 229 3 166 233 228 216 217 219 223 223 231 250 258 237 238 230
259 276 285 282 279 271 263 260 262 249 256 263 264 269 269 282 303 296 256 288 289 287 268 303 308 340 346 6 135 208 210 227 234 212 207 206 218 228 237 247 246 253 258
291 299 294 295 282 270 263 251 255 263 267 275 282 265 273 300 316 306 279 277 306 290 273 292 307 312 326 329 272 202 237 220 217 213 212 217 217 225 234 241 243 254 252
309 302 299 296 292 282 255 246 255 265 268 264 266 271 285 299 303 293 291 288 296 264 270 289 300 285 218 299 321 201 288 240 228 224 219 223 229 231 238 245 246 242 248
320 323 320 324 296 289 293 256 263 269 277 273 274 272 284 294 297 293 289 288 285 288 275 270 277 256 262 306 303 263 275 240 234 235 230 225 228 234 237 243 248 247 241
63 62 52 32 9 349 327 297 283 270 274 280 284 289 292 294 300 304 302 292 275 263 265 263 257 257 267 275 273 267 262 254 251 258 242 235 230 232 236 242 247 249 247
76 67 59 51 43 31 19 355 313 299 294 293 292 290 290 291 293 297 300 300 298 283 268 263 260 265 270 272 275 275 272 264 257 250 245 236 237 237 237 238 240 244 245
74 61 52 41 29 22 19 20 356 322 306 299 297 292 288 288 290 289 288 289 288 285 273 262 254 261 267 274 277 278 277 272 267 253 247 240 242 244 245 244 246 246 248
23 25 22 19 8 2 355 355 349 349 342 328 310 296 290 289 287 285 287 286 281 275 270 264 265 267 268 265 269 273 275 275 265 255 245 245 247 247 250 249 253 252 248
274 314 337 349 351 340 337 336 333 331 325 323 319 314 302 293 292 294 291 285 279 276 272 264 259 259 262 263 261 262 265 262 254 256 252 245 248 255 257 263 255 253 246
276 293 313 330 335 325 324 326 324 318 312 313 314 314 308 305 298 293 292 290 288 285 283 279 268 266 265 263 270 252 262 255 244 243 249 251 261 253 268 262 263 262 248
267 279 299 314 324 315 317 319 318 313 310 310 313 312 309 303 297 290 287 286 284 284 285 283 282 279 275 267 268 263 248 247 256 259 258 254 248 254 255 259 259 269 271
265 281 296 308 315 307 311 313 313 315 315 315 313 308 306 307 301 292 289 288 284 279 275 275 277 276 272 266 263 266 263 259 263 259 259 256 258 252 246 253 258 267 269
268 277 288 302 307 307 313 313 313 313 313 312 312 310 308 308 302 299 292 288 285 284 283 282 280 276 273 268 263 261 260 260 258 263 256 251 245 250 254 259 255 246 268
264 277 289 297 294 301 305 308 309 307 307 307 310 306 303 302 301 301 295 289 286 284 279 276 275 276 276 273 268 263 264 262 259 257 253 246 247 252 252 251 257 258 262
260 267 279 287 295 299 301 303 302 301 300 300 300 299 298 297 294 292 293 291 288 286 284 283 280 279 277 275 273 268 264 260 258 255 249 247 247 248 255 255 259 258 261
251 265 279 290 296 299 301 301 298 296 296 295 295 294 291 287 289 288 286 286 287 286 284 284 284 282 280 279 275 270 266 262 256 254 248 244 248 256 257 259 257 261 259
Height
3199 3199 3199 3200 3202 3202 3203 3202 3203 3204 3203 3203 3204 3205 3206 3206 3205 3206 3205 3205 3204 3204 3204 3205 3204 3205 3206 3207 3207 3207 3207 3209 3209 3209 3208 3209 3208 3209 3210 3210 3212 3213 3214
3199 3200 3200 3200 3202 3202 3203 3203 3203 3202 3203 3204 3204 3205 3204 3203 3202 3203 3204 3204 3203 3202 3202 3203 3202 3203 3204 3205 3205 3205 3205 3207 3209 3210 3210 3210 3210 3211 3210 3211 3211 3213 3215
3198 3200 3201 3200 3201 3202 3202 3202 3202 3203 3202 3204 3202 3201 3201 3201 3201 3201 3202 3202 3200 3199 3200 3200 3199 3200 3201 3202 3201 3201 3203 3204 3206 3209 3211 3211 3211 3211 3212 3212 3213 3214 3215
3197 3198 3199 3200 3200 3201 3201 3200 3201 3201 3201 3201 3200 3200 3200 3201 3200 3200 3200 3200 3199 3196 3197 3198 3198 3197 3198 3199 3200 3198 3199 3201 3204 3205 3207 3209 3210 3211 3212 3213 3214 3215 3216
3199 3199 3199 3198 3199 3199 3200 3201 3200 3200 3201 3201 3200 3200 3200 3199 3199 3198 3198 3198 3198 3197 3196 3196 3197 3190 3194 3195 3197 3196 3196 3197 3198 3201 3204 3207 3208 3210 3211 3212 3213 3215 3216
3200 3200 3199 3199 3199 3200 3200 3200 3200 3200 3200 3200 3200 3199 3198 3198 3197 3197 3196 3195 3196 3196 3196 3196 3194 3194 3193 3189 3188 3191 3194 3195 3193 3195 3199 3202 3205 3208 3209 3211 3212 3213 3215
3201 3200 3200 3199 3199 3200 3199 3198 3199 3199 3199 3198 3197 3198 3198 3196 3194 3194 3195 3195 3193 3193 3193 3194 3192 3190 3189 3185 3163 3185 3189 3192 3191 3192 3194 3197 3201 3203 3205 3207 3209 3211 3213
3198 3199 3198 3197 3197 3197 3196 3197 3197 3197 3198 3198 3196 3196 3196 3195 3194 3192 3191 3191 3190 3192 3192 3190 3186 3183 3180 3180 3175 3186 3185 3186 3187 3188 3190 3193 3196 3198 3201 3204 3205 3207 3209
3197 3195 3196 3195 3194 3195 3194 3194 3194 3194 3195 3195 3195 3194 3194 3193 3192 3191 3189 3189 3188 3189 3190 3189 3185 3180 3178 3177 3182 3183 3182 3182 3182 3185 3188 3189 3192 3194 3195 3196 3200 3202 3203
3196 3195 3194 3193 3192 3192 3191 3192 3191 3192 3192 3192 3191 3190 3190 3191 3190 3191 3189 3188 3187 3187 3187 3185 3184 3179 3178 3178 3174 3176 3180 3180 3181 3181 3184 3186 3189 3192 3192 3191 3193 3195 3195
3194 3193 3191 3190 3190 3189 3189 3189 3188 3189 3189 3190 3189 3189 3189 3188 3188 3187 3187 3186 3186 3185 3183 3183 3181 3178 3175 3176 3178 3181 3179 3180 3181 3181 3184 3184 3186 3188 3190 3191 3192 3191 3190
3191 3188 3187 3185 3185 3185 3185 3185 3185 3186 3186 3187 3187 3186 3186 3186 3184 3183 3184 3184 3183 3181 3178 3178 3180 3179 3175 3174 3176 3177 3178 3178 3180 3181 3182 3183 3183 3184 3185 3187 3187 3187 3187
3187 3185 3183 3182 3181 3181 3181 3182 3183 3184 3184 3184 3184 3183 3183 3182 3181 3180 3179 3180 3180 3177 3174 3174 3175 3176 3176 3174 3173 3173 3175 3175 3177 3179 3178 3179 3179 3180 3182 3183 3183 3184 3183
3185 3183 3182 3180 3180 3179 3179 3179 3180 3180 3181 3181 3182 3181 3180 3178 3177 3177 3177 3177 3176 3173 3172 3172 3171 3172 3172 3174 3171 3172 3173 3173 3173 3174 3174 3173 3174 3175 3178 3178 3179 3179 3179
3182 3181 3179 3178 3177 3177 3177 3177 3177 3177 3178 3178 3178 3178 3177 3176 3174 3173 3173 3174 3174 3172 3169 3168 3169 3170 3170 3170 3170 3169 3168 3168 3168 3169 3169 3169 3170 3172 3173 3174 3174 3175 3175
3183 3181 3180 3178 3177 3176 3176 3175 3174 3174 3174 3174 3174 3173 3173 3173 3172 3170 3168 3167 3168 3170 3168 3167 3165 3166 3167 3168 3167 3166 3165 3163 3163 3163 3163 3165 3167 3167 3167 3168 3169 3169 3169
3184 3183 3181 3180 3178 3177 3175 3173 3172 3171 3171 3170 3170 3170 3169 3169 3168 3167 3166 3164 3163 3163 3164 3163 3162 3162 3162 3163 3162 3161 3160 3160 3159 3159 3159 3159 3160 3161 3161 3161 3163 3164 3163
3185 3183 3182 3180 3179 3176 3175 3173 3171 3169 3168 3166 3165 3164 3164 3163 3163 3162 3162 3161 3159 3160 3160 3159 3158 3157 3157 3157 3156 3156 3155 3155 3154 3154 3155 3154 3155 3155 3155 3156 3156 3155 3156
3184 3183 3182 3180 3178 3177 3174 3172 3170 3167 3165 3163 3162 3160 3159 3158 3157 3157 3157 3156 3156 3155 3155 3155 3154 3154 3154 3153 3153 3151 3151 3150 3149 3148 3149 3149 3149 3150 3150 3151 3150 3150 3150
3183 3182 3180 3178 3176 3175 3173 3171 3169 3167 3165 3162 3159 3156 3155 3153 3152 3152 3151 3151 3150 3150 3149 3149 3150 3150 3150 3149 3148 3148 3147 3145 3145 3145 3145 3145 3146 3148 3146 3146 3145 3145 3145
3181 3179 3178 3177 3175 3173 3171 3169 3166 3164 3162 3159 3155 3152 3151 3150 3148 3147 3146 3145 3146 3145 3145 3144 3144 3144 3145 3144 3142 3142 3142 3142 3141 3141 3141 3142 3141 3142 3142 3142 3143 3142 3141
3178 3177 3176 3174 3172 3169 3166 3164 3162 3159 3157 3155 3152 3148 3147 3145 3144 3142 3140 3140 3141 3140 3139 3139 3138 3138 3139 3138 3138 3137 3137 3136 3137 3137 3137 3137 3136 3136 3138 3138 3139 3139 3138
3173 3172 3171 3169 3167 3165 3162 3160 3157 3154 3152 3150 3148 3144 3141 3140 3139 3137 3136 3136 3136 3135 3135 3134 3134 3133 3133 3132 3132 3131 3131 3131 3131 3131 3132 3131 3132 3133 3133 3133 3134 3135 3134
3165 3166 3165 3163 3161 3158 3156 3154 3152 3150 3147 3145 3143 3141 3138 3136 3133 3132 3131 3130 3130 3130 3129 3128 3128 3127 3128 3127 3127 3126 3126 3126 3126 3126 3126 3127 3127 3128 3128 3129 3129 3130 3130
3159 3158 3158 3157 3156 3153 3151 3147 3145 3143 3142 3140 3139 3137 3135 3131 3129 3127 3126 3125 3124 3124 3123 3123 3123 3122 3122 3122 3122 3121 3121 3121 3120 3121 3120 3121 3122 3123 3123 3123 3124 3124 3124
3152 3152 3151 3151 3150 3147 3145 3143 3140 3137 3137 3135 3134 3133 3131 3128 3126 3124 3123 3121 3120 3119 3118 3118 3117 3117 3117 3116 3116 3115 3115 3116 3115 3115 3115 3116 3117 3118 3118 3118 3118 3118 3118